Weather History for KJSO - November, 2012

Change the Weather History Date:

Saturday, November 3, 2012

  Actual Average (KTYR) Record (KTYR)
Temperature  
Mean Temperature 70 °F 60 °F  
Max Temperature 79 °F 71 °F 86 °F (1955)
Min Temperature 62 °F 50 °F 23 °F (1966)
Degree Days  
Heating Degree Days 0 6  
Month to date heating degree days 17  
Since 1 July heating degree days 94  
Cooling Degree Days 6 1  
Month to date cooling degree days 5  
Year to date cooling degree days 2398  
Growing Degree Days 20 (Base 50)    
Moisture  
Dew Point 62 °F    
Average Humidity 84    
Maximum Humidity 100    
Minimum Humidity 52    
Precipitation  
Precipitation 0.00 in 0.16 in 1.90 in (1946)
Month to date precipitation 0.45  
Year to date precipitation 37.90  
Snow  
Snow 0.00 in - - ()
Month to date snowfall  
Since 1 July snowfall  
Since 1 September snowfall  
Snow Depth -    
Sea Level Pressure  
Sea Level Pressure 30.08 in    
Wind  
Wind Speed 6 mph (SSW)    
Max Wind Speed 14 mph    
Max Gust Speed 18 mph    
Visibility 8 miles    
Events Fog , Rain , Thunderstorm    
T = Trace of Precipitation, MM = Missing Value Source: NWS Daily Summary

Daily Weather History Graph

Daily Weather History Graph

Search for Another Location

Airport or City:

Trip Planner

Search our weather history database for the weather conditions in past years. The results will help you decide how hot, cold, wet, or windy it might be!

Date:

Astronomy

Nov. 03, 2012 Rise Set
Actual Time 7:39 AM CDT 6:29 PM CDT
Civil Twilight 7:14 AM CDT 6:54 PM CDT
Nautical Twilight 6:45 AM CDT 7:23 PM CDT
Astronomical Twilight 6:16 AM CDT 7:51 PM CDT
Moon 10:16 PM CDT (11/3) 11:38 AM CDT (11/3)
Length of Visible Light 11h 40m
Length of Day
10h 49m
Waning Gibbous, 80% of the Moon is Illuminated
Nov 3
Waning Gibbous
Nov 6
Last Quarter
Nov 13
New
Nov 20
First Quarter
Nov 28
Full

Hourly Weather History & Observations

Time (CDT) Temp. Dew Point Humidity Pressure Visibility Wind Dir Wind Speed Gust Speed Precip Events Conditions
12:15 AM 66.2 °F 61.9 °F 86% 30.03 in 10.0 mi South 6.9 mph - N/A   Clear
12:35 AM 65.5 °F 62.1 °F 89% 30.03 in 10.0 mi South 6.9 mph - N/A   Clear
12:55 AM 65.1 °F 62.1 °F 90% 30.04 in 10.0 mi South 6.9 mph - N/A   Clear
1:15 AM 64.2 °F 61.9 °F 92% 30.03 in 10.0 mi South 5.8 mph - N/A   Clear
1:35 AM 63.5 °F 61.9 °F 94% 30.03 in 10.0 mi SSW 5.8 mph - N/A   Clear
2:15 AM 63.9 °F 62.8 °F 96% 30.03 in 10.0 mi South 6.9 mph - N/A   Clear
2:35 AM 64.0 °F 63.0 °F 96% 30.03 in 10.0 mi South 5.8 mph - N/A   Clear
2:55 AM 63.5 °F 62.6 °F 97% 30.03 in 10.0 mi South 6.9 mph - N/A   Clear
3:15 AM 63.3 °F 62.6 °F 97% 30.03 in 10.0 mi South 5.8 mph - N/A   Clear
3:35 AM 63.0 °F 62.6 °F 99% 30.03 in 7.0 mi South 6.9 mph - N/A   Clear
3:55 AM 63.0 °F 62.6 °F 99% 30.03 in 7.0 mi South 6.9 mph - N/A   Clear
4:15 AM 63.0 °F 62.8 °F 99% 30.04 in 5.0 mi South 6.9 mph - N/A   Clear
4:55 AM 63.1 °F 63.0 °F 99% 30.05 in 4.0 mi South 5.8 mph - N/A   Mostly Cloudy
5:15 AM 63.3 °F 63.1 °F 99% 30.05 in 4.0 mi South 8.1 mph - N/A   Scattered Clouds
5:35 AM 63.3 °F 63.3 °F 100% 30.06 in 4.0 mi South 6.9 mph - N/A   Scattered Clouds
5:55 AM 63.1 °F 63.1 °F 100% 30.06 in 2.0 mi South 6.9 mph - N/A   Overcast
6:15 AM 63.5 °F 63.5 °F 100% 30.07 in 3.0 mi South 5.8 mph - N/A   Overcast
6:35 AM 63.5 °F 63.5 °F 100% 30.07 in 3.0 mi South 5.8 mph - N/A   Overcast
6:55 AM 63.7 °F 63.7 °F 100% 30.08 in 1.8 mi South 6.9 mph - N/A   Overcast
7:15 AM 63.7 °F 63.7 °F 100% 30.08 in 0.8 mi South 6.9 mph - N/A   Overcast
7:35 AM 63.9 °F 63.9 °F 100% 30.09 in 0.5 mi South 4.6 mph - N/A Fog Fog
7:55 AM 63.5 °F 63.5 °F 100% 30.10 in 0.2 mi South 4.6 mph - N/A Fog Fog
8:15 AM 63.7 °F 63.7 °F 100% 30.10 in 0.2 mi South 5.8 mph - N/A Fog Fog
8:35 AM 63.7 °F 63.7 °F 100% 30.11 in 0.2 mi SSW 4.6 mph - N/A Fog Fog
8:55 AM 64.0 °F 64.0 °F 100% 30.12 in 0.2 mi South 6.9 mph - N/A Fog Fog
9:15 AM 64.0 °F 64.0 °F 100% 30.13 in 0.2 mi South 5.8 mph - N/A Fog Fog
9:35 AM 64.0 °F 64.0 °F 100% 30.13 in 0.2 mi South 5.8 mph - N/A Fog Fog
9:55 AM 64.4 °F 64.4 °F 100% 30.14 in 0.2 mi South 6.9 mph - N/A Fog Fog
10:15 AM 64.8 °F 64.8 °F 100% 30.14 in 0.5 mi SSW 3.5 mph - N/A Fog Fog
10:35 AM 65.5 °F 65.5 °F 100% 30.14 in 1.5 mi Calm Calm - N/A   Overcast
10:55 AM 66.6 °F 66.6 °F 100% 30.14 in 7.0 mi SSW 3.5 mph - N/A   Overcast
11:15 AM 68.4 °F 68.4 °F 100% 30.14 in 10.0 mi SW 5.8 mph - N/A   Mostly Cloudy
11:35 AM 70.2 °F 67.1 °F 90% 30.14 in 10.0 mi SSW 5.8 mph - N/A   Mostly Cloudy
11:55 AM 71.1 °F 67.3 °F 88% 30.14 in 10.0 mi South 6.9 mph - N/A   Overcast
12:15 PM 72.7 °F 67.1 °F 83% 30.13 in 10.0 mi SSW 4.6 mph - N/A   Mostly Cloudy
12:35 PM 75.0 °F 66.6 °F 75% 30.11 in 10.0 mi South 4.6 mph - N/A   Mostly Cloudy
12:55 PM 75.4 °F 66.0 °F 73% 30.10 in 10.0 mi SW 6.9 mph - N/A   Scattered Clouds
1:15 PM 77.2 °F 63.9 °F 63% 30.09 in 10.0 mi SSW 5.8 mph - N/A   Scattered Clouds
1:35 PM 78.1 °F 63.3 °F 60% 30.07 in 10.0 mi South 4.6 mph - N/A   Scattered Clouds
1:55 PM 78.4 °F 62.6 °F 58% 30.06 in 10.0 mi WSW 4.6 mph - N/A   Scattered Clouds
2:15 PM 77.2 °F 62.6 °F 61% 30.06 in 10.0 mi Calm Calm - N/A   Scattered Clouds
2:35 PM 79.7 °F 60.4 °F 52% 30.05 in 10.0 mi Calm Calm - N/A   Mostly Cloudy
2:55 PM 78.8 °F 61.2 °F 55% 30.04 in 10.0 mi South 3.5 mph - N/A   Overcast
3:15 PM 77.4 °F 61.7 °F 58% 30.04 in 10.0 mi SSW 3.5 mph - N/A   Mostly Cloudy
3:35 PM 77.4 °F 61.3 °F 58% 30.04 in 10.0 mi South 6.9 mph - N/A   Mostly Cloudy
3:55 PM 75.9 °F 62.4 °F 63% 30.04 in 10.0 mi South 11.5 mph - N/A   Mostly Cloudy
4:15 PM 72.0 °F 57.9 °F 61% 30.04 in 10.0 mi SSW 5.8 mph - N/A Thunderstorm Thunderstorm
4:35 PM 71.8 °F 55.6 °F 57% 30.04 in 10.0 mi SSW 5.8 mph - N/A Rain Light Rain
4:55 PM 73.4 °F 58.3 °F 59% 30.04 in 10.0 mi SSW 5.8 mph - N/A   Clear
5:15 PM 73.8 °F 60.8 °F 64% 30.04 in 10.0 mi SSW 4.6 mph - N/A Thunderstorm Clear
5:35 PM 72.9 °F 63.3 °F 72% 30.04 in 10.0 mi SW 3.5 mph - N/A   Clear
5:55 PM 72.0 °F 64.6 °F 77% 30.05 in 10.0 mi South 8.1 mph - N/A   Clear
6:15 PM 70.2 °F 65.5 °F 85% 30.06 in 10.0 mi South 8.1 mph - N/A   Clear
6:35 PM 68.9 °F 64.9 °F 87% 30.07 in 10.0 mi SSW 6.9 mph - N/A   Scattered Clouds
6:55 PM 68.0 °F 63.5 °F 85% 30.09 in 10.0 mi South 10.4 mph 16.1 mph N/A   Scattered Clouds
7:15 PM 67.1 °F 61.3 °F 82% 30.10 in 10.0 mi South 12.7 mph 18.4 mph N/A   Scattered Clouds
7:35 PM 65.5 °F 60.6 °F 84% 30.10 in 10.0 mi SSE 13.8 mph 18.4 mph N/A   Clear
7:55 PM 64.9 °F 59.0 °F 81% 30.11 in 10.0 mi SSE 6.9 mph - N/A   Clear
8:15 PM 64.4 °F 58.6 °F 82% 30.10 in 10.0 mi SE 8.1 mph - N/A   Clear
8:35 PM 63.9 °F 58.6 °F 83% 30.09 in 10.0 mi South 6.9 mph - N/A   Clear
8:55 PM 64.4 °F 57.4 °F 78% 30.09 in 10.0 mi South 5.8 mph - N/A   Clear
9:15 PM 64.2 °F 56.8 °F 77% 30.08 in 10.0 mi South 5.8 mph - N/A   Clear
9:35 PM 63.5 °F 57.2 °F 80% 30.08 in 10.0 mi South 6.9 mph - N/A   Clear
9:55 PM 63.5 °F 55.9 °F 76% 30.09 in 10.0 mi SSW 5.8 mph - N/A   Clear
10:15 PM 63.1 °F 56.3 °F 78% 30.08 in 10.0 mi SSW 3.5 mph - N/A   Clear
10:35 PM 63.0 °F 56.3 °F 79% 30.08 in 10.0 mi SW 5.8 mph - N/A   Clear
10:55 PM 62.6 °F 55.4 °F 77% 30.09 in 10.0 mi SW 4.6 mph - N/A   Clear
11:15 PM 63.0 °F 54.3 °F 73% 30.08 in 10.0 mi SW 4.6 mph - N/A   Clear
11:35 PM 63.5 °F 53.6 °F 70% 30.08 in 10.0 mi WSW 4.6 mph - N/A   Clear
11:55 PM 63.9 °F 53.1 °F 68% 30.09 in 10.0 mi WSW 4.6 mph - N/A   Clear